Meteo Giornale » Osservazioni meteo Repubblica Ceca » Caslav

ore: 06:30 - Osservazioni Meteo Caslav
Lat. 49° 56' N Lon. 15° 23' E Alt. 242 metri s.l.m.

coperto Europe/Prague

1 °C

Coperto

Temp. 24 Ore

-2 °C

7 °C

Sud-Est

14.8 Km/h

Dew point -1 °C

Umidità 86 %

Visibilità  10 Km

Il sole sorge alle ore 07:25

Il sole tramonta alle ore 16:05

Data e Ora Cielo e Fenomeni T °C DP °C Um. % Pres. hPa Vis. km Vento km/h
Oggi h: 06:30 coperto Coperto 1 -1 86 1023 10 SE 14.8
Oggi h: 06:00 coperto Coperto 1 -1 86 1023 10 SE 18.5
Oggi h: 04:00 coperto Coperto 1 -1 86 1023 10 S/SE 13
Oggi h: 03:30 coperto Coperto 1 -1 86 1024 10 S 13
Oggi h: 03:00 coperto Coperto 2 -1 80 1024 10 S/SE 16.7
Oggi h: 02:30 coperto Coperto 2 -0 86 1024 10 S/SE 13
Oggi h: 02:00 coperto Coperto 2 -0 86 1024 10 S/SE 14.8
Oggi h: 01:30 coperto Coperto 2 -0 86 1024 10 S 9.3
Oggi h: 01:00 coperto Coperto 2 -0 86 1024 10 S/SE 16.7
Oggi h: 00:30 coperto Coperto 2 -1 80 1024 10 S/SE 16.7
Oggi h: 00:00 coperto Coperto 2 -1 80 1025 10 S/SE 18.5
Ieri h: 23:30 coperto Coperto 2 -1 80 1025 10 S/SE 14.8
Ieri h: 23:00 coperto Coperto 2 -0 86 1025 10 S/SE 13
Ieri h: 22:30 coperto Coperto 2 -0 86 1025 10 S/SE 14.8
Ieri h: 22:00 coperto Coperto 2 -0 86 1025 10 S/SE 16.7
Ieri h: 21:46 coperto Coperto 2 -0 86 1025 10 S/SE 18.5
Ieri h: 21:30 coperto Coperto 2 -0 86 1025 10 S/SE 13
Ieri h: 21:00 coperto Coperto 2 -0 86 1025 10 S 9.3
Ieri h: 20:30 coperto Coperto 2 -0 86 1025 10 S/SE 14.8
Ieri h: 20:00 coperto Coperto 2 -0 86 1026 10 S/SE 9.3
Ieri h: 19:30 coperto Coperto 2 -0 86 1025 10 SE 9.3
Ieri h: 19:00 molto_nuvoloso Molto Nuvoloso 1 -0 93 1025 10 SE 14.8
Ieri h: 18:30 sereno Sereno 1 -1 86 1025 10 SE 13
Ieri h: 18:00 sereno Sereno 2 -1 80 1025 10 E 11.1
Ieri h: 17:00 sereno Sereno 3 0 80 1025 10 E/SE 11.1
Ieri h: 16:00 sereno Sereno 5 1 75 1026 10 E/SE 11.1
Ieri h: 15:30 sereno Sereno 6 1 70 1026 10 E/SE 13
Ieri h: 15:00 sereno Sereno 6 2 75 1026 10 E/SE 11.1
Ieri h: 14:30 sereno Sereno 7 2 70 1027 10 SE 14.8
Ieri h: 14:00 sereno Sereno 7 2 70 1027 10 E/SE 14.8
Ieri h: 13:30 sereno Sereno 6 2 75 1027 10 SE 13
Ieri h: 13:00 sereno Sereno 6 1 70 1027 10 SE 13
Ieri h: 12:30 sereno Sereno 6 2 75 1028 10 E/SE 13
Ieri h: 12:00 sereno Sereno 5 1 75 1028 10 E/SE 11.1
Ieri h: 11:30 sereno Sereno 4 1 80 1029 10 E/SE 9.3
Ieri h: 11:00 sereno Sereno 4 1 80 1029 10 SE 9.3
Ieri h: 10:30 sereno Sereno 3 0 80 1029 10 N 5.5
Ieri h: 10:00 sereno Sereno 2 -0 86 1029 10 N 5.5
Ieri h: 09:30 sereno Sereno 1 -1 86 1029 10 SE 7.4
Ieri h: 09:00 sereno Sereno 0 -1 92 1030 10 N 5.5
Ieri h: 08:30 sereno Sereno -1 -2 92 1030 10 SE 9.3
Ieri h: 08:00 sereno Sereno -2 -3 92 1030 10 SE 9.3
Ieri h: 07:30 sereno Sereno -2 -2 100 1030 10 SE 9.3
Ieri h: 07:00 sereno Sereno -2 -3 92 1030 10 S/SE 7.4
Ieri h: 06:30 sereno Sereno -1 -2 92 1030 10 N 3.7
Ieri h: 06:00 sereno Sereno -1 -2 92 1029 10 N 5.5